Aérodrome :
LOGIN :

S'inscrire | Disclaimer

   EN    FR    IT 

 










Légende :    VFR   VFR Marginal   IFR   IFR Intensif   IFR Très Intensif
Visi : 
Plafond : 
>= 8 km
>= 3000ft
5 à 8 km
1000 à 3000 ft
1500m à 5 km
500 à 1000 ft
800 à 1500m
200 à 500 ft
< 800m
< 200 ft
Symboles :   Orages  Brouillard  Fortes neiges  Fortes précipitations  Vent > 20 kt
SIGMETs :   Divers  Orages  Givrage  Turbulence  Onde Orograph.  Cendres Volcan.







- Altitude de l'aérodrome : 102 ft
- Code IATA : KEL


EDHK - Holtenau

DERNIER METAR :
  • 171120Z 28007KT 9999 SCT020 01/M01 Q1019

METARs EXPIRÉS :
  • 171050Z 28007KT 9999 SCT018 01/M00 Q1019
  • 171020Z 29007KT 9999 SCT017 01/M00 Q1019
  • 170950Z 30006KT 9999 SCT018 01/M01 Q1019
  • 170920Z 28006KT 9999 SCT020 00/M01 Q1018
  • 170850Z 31007KT 9999 SCT017 01/M00 Q1018

TAF TAF EDHK
Valide du 17 à 12h jusqu'au 17 à 18h UTC


171100Z 1712/1718 29006KT 9999 SCT025
BECMG 1714/1716 23004KT
Pas de NOTAMs connus pour ce terrain.



MET'MAP, la Météo Aéronautique d'un coup d'oeil ! - Copyright ORBIFLY Décembre 2007 - Disclaimer

ORBIFLY MET'MAP TEAM :

Programmation & Développement : Alexandra Zaïnal
Conception & Développement : Baudouin d'Aumeries
Co-Programmation & Développement : Marc-Olivier Méhu
Soutien technique & logistique : Manuel Goepfert

Contact : metmap@orbifly.com




SOURCES & CREDITS :

   NOAA